This demonstration page uses our WeatherBlox Daily Observations layout. Learn more.

Hourly Observations for August 11, 2020

Temp ( °F °C ) Dew Point ( °F °C ) Humidity (%) Winds ( mph kmh ) Pressure ( in mb ) Visibility ( mi km ) Precip ( " mm )
12:51 am 00:51 Clear 85 29.4 38 3.3 19 19 NW 9 15 29.75 1007 10 16.0934 0 0
1:51 am 01:51 Clear 85 29.4 38 3.3 19 19 WNW 9 15 29.75 1007 10 16.0934 0 0
2:51 am 02:51 Clear 84 28.9 38 3.3 19 19 WNW 10 17 29.75 1007 10 16.0934 0 0
3:51 am 03:51 Clear 86 30 36 2.2 17 17 NW 9 15 29.74 1007 10 16.0934 0 0
4:51 am 04:51 Clear 82 27.8 37 2.8 20 20 Calm 29.76 1008 10 16.0934 0 0
5:51 am 05:51 Sunny 83 28.3 36 2.2 19 19 NNW 6 9 29.78 1009 10 16.0934 0 0
6:51 am 06:51 Sunny 81 27.2 43 6.1 26 26 S 5 7 29.81 1010 10 16.0934 0 0
7:51 am 07:51 Sunny 86 30 41 5 20 20 VRB 3 6 29.83 1010 10 16.0934 0 0
8:51 am 08:51 Sunny 92 33.3 39 3.9 16 16 WNW 9 15 29.82 1010 10 16.0934 0 0
9:51 am 09:51 Sunny 94 34.4 39 3.9 15 15 NW 12 19 29.82 1010 10 16.0934 0 0
10:51 am 10:51 Sunny 98 36.7 40 4.4 13 13 NW 13 20 29.8 1009 10 16.0934 0 0
11:51 am 11:51 Sunny 100 37.8 39 3.9 12 12 WNW 15 24 29.79 1009 10 16.0934 0 0
12:51 pm 12:51 Sunny 103 39.4 38 3.3 11 11 undefined N/A 29.75 1008 10 16.0934 0 0
1:51 pm 13:51 Sunny 104 40 38 3.3 10 10 W 14 22 29.73 1007 10 16.0934 0 0
2:51 pm 14:51 Sunny 104 40 40 4.4 11 11 W 14 22 29.7 1006 10 16.0934 0 0
3:51 pm 15:51 Sunny 103 39.4 40 4.4 11 11 VRB 7 11 29.67 1005 10 16.0934 0 0
4:51 pm 16:51 Sunny 103 39.4 40 4.4 11 11 WNW 8 13 29.67 1005 10 16.0934 0 0
5:51 pm 17:51 Sunny 103 39.4 42 5.6 12 12 W 12 19 29.66 1005 10 16.0934 0 0
6:51 pm 18:51 Sunny 99 37.2 45 7.2 16 16 W 8 13 29.67 1005 10 16.0934 0 0
7:51 pm 19:51 Clear 96 35.6 46 7.8 18 18 W 10 17 29.7 1006 10 16.0934 0 0
8:51 pm 20:51 Clear 93 33.9 46 7.8 20 20 NW 10 17 29.71 1006 10 16.0934 0 0
9:51 pm 21:51 Clear 93 33.9 45 7.2 19 19 NW 14 22 29.72 1007 10 16.0934 0 0
10:51 pm 22:51 Clear 90 32.2 54 12.2 29 29 NW 18 30 29.75 1008 10 16.0934 0 0
11:51 pm 23:51 Clear 89 31.7 55 12.8 31 31 NW 20 31 29.76 1008 10 16.0934 0 0

Powered by AerisWeather